Year,Month,Day,Hour,Minute,Value (Times are PST for temperature in C)
2016,06,06,00,00,24.30
2016,06,06,00,01,24.30
2016,06,06,00,02,24.20
2016,06,06,00,03,24.20
2016,06,06,00,04,24.20
2016,06,06,00,05,24.20
2016,06,06,00,06,24.20
2016,06,06,00,07,24.20
2016,06,06,00,08,24.10
2016,06,06,00,09,24.10
2016,06,06,00,10,24.10
2016,06,06,00,11,24.10
2016,06,06,00,12,24.10
2016,06,06,00,13,24.00
2016,06,06,00,14,24.00
2016,06,06,00,15,23.90
2016,06,06,00,16,23.90
2016,06,06,00,17,23.90
2016,06,06,00,18,23.90
2016,06,06,00,19,23.90
2016,06,06,00,20,23.90
2016,06,06,00,21,23.90
2016,06,06,00,22,23.90
2016,06,06,00,23,23.90
2016,06,06,00,24,23.80
2016,06,06,00,25,23.80
2016,06,06,00,26,23.80
2016,06,06,00,27,23.80
2016,06,06,00,28,23.80
2016,06,06,00,29,23.90
2016,06,06,00,30,23.90
2016,06,06,00,31,23.90
2016,06,06,00,32,23.90
2016,06,06,00,33,23.90
2016,06,06,00,34,23.90
2016,06,06,00,35,23.90
2016,06,06,00,36,23.90
2016,06,06,00,37,23.90
2016,06,06,00,38,23.90
2016,06,06,00,39,23.90
2016,06,06,00,40,23.90
2016,06,06,00,41,23.90
2016,06,06,00,42,23.80
2016,06,06,00,43,23.80
2016,06,06,00,44,23.80
2016,06,06,00,45,23.80
2016,06,06,00,46,23.80
2016,06,06,00,47,23.80
2016,06,06,00,48,23.80
2016,06,06,00,49,23.80
2016,06,06,00,50,23.80
2016,06,06,00,51,23.80
2016,06,06,00,52,23.80
2016,06,06,00,53,23.90
2016,06,06,00,54,23.90
2016,06,06,00,55,24.00
2016,06,06,00,56,24.00
2016,06,06,00,57,24.10
2016,06,06,00,58,24.10
2016,06,06,00,59,24.10
2016,06,06,01,00,24.10
2016,06,06,01,01,24.10
2016,06,06,01,02,24.10
2016,06,06,01,03,24.10
2016,06,06,01,04,24.10
2016,06,06,01,05,24.10
2016,06,06,01,06,24.10
2016,06,06,01,07,24.10
2016,06,06,01,08,24.10
2016,06,06,01,09,24.10
2016,06,06,01,10,24.10
2016,06,06,01,11,24.10
2016,06,06,01,12,24.10
2016,06,06,01,13,24.10
2016,06,06,01,14,24.10
2016,06,06,01,15,24.10
2016,06,06,01,16,24.10
2016,06,06,01,17,24.20
2016,06,06,01,18,24.20
2016,06,06,01,19,24.10
2016,06,06,01,20,24.10
2016,06,06,01,21,24.10
2016,06,06,01,22,24.10
2016,06,06,01,23,24.10
2016,06,06,01,24,24.10
2016,06,06,01,25,24.10
2016,06,06,01,26,24.10
2016,06,06,01,27,24.10
2016,06,06,01,28,24.10
2016,06,06,01,29,24.10
2016,06,06,01,30,24.10
2016,06,06,01,31,24.10
2016,06,06,01,32,24.00
2016,06,06,01,33,24.00
2016,06,06,01,34,24.00
2016,06,06,01,35,24.00
2016,06,06,01,36,24.00
2016,06,06,01,37,23.90
2016,06,06,01,38,23.90
2016,06,06,01,39,23.90
2016,06,06,01,40,23.80
2016,06,06,01,41,23.80
2016,06,06,01,42,23.70
2016,06,06,01,43,23.70
2016,06,06,01,44,23.60
2016,06,06,01,45,23.60
2016,06,06,01,46,23.60
2016,06,06,01,47,23.60
2016,06,06,01,48,23.60
2016,06,06,01,49,23.60
2016,06,06,01,50,23.50
2016,06,06,01,51,23.60
2016,06,06,01,52,23.60
2016,06,06,01,53,23.60
2016,06,06,01,54,23.60
2016,06,06,01,55,23.60
2016,06,06,01,56,23.60
2016,06,06,01,57,23.60
2016,06,06,01,58,23.60
2016,06,06,01,59,23.60
2016,06,06,02,00,23.60
2016,06,06,02,01,23.60
2016,06,06,02,02,23.60
2016,06,06,02,03,23.60
2016,06,06,02,04,23.60
2016,06,06,02,05,23.60
2016,06,06,02,06,23.60
2016,06,06,02,07,23.60
2016,06,06,02,08,23.60
2016,06,06,02,09,23.60
2016,06,06,02,10,23.60
2016,06,06,02,11,23.50
2016,06,06,02,12,23.50
2016,06,06,02,13,23.40
2016,06,06,02,14,23.40
2016,06,06,02,15,23.40
2016,06,06,02,16,23.40
2016,06,06,02,17,23.40
2016,06,06,02,18,23.40
2016,06,06,02,19,23.40
2016,06,06,02,20,23.40
2016,06,06,02,21,23.30
2016,06,06,02,22,23.30
2016,06,06,02,23,23.30
2016,06,06,02,24,23.30
2016,06,06,02,25,23.20
2016,06,06,02,26,23.20
2016,06,06,02,27,23.20
2016,06,06,02,28,23.10
2016,06,06,02,29,23.10
2016,06,06,02,30,23.10
2016,06,06,02,31,23.00
2016,06,06,02,32,22.90
2016,06,06,02,33,22.90
2016,06,06,02,34,22.80
2016,06,06,02,35,22.80
2016,06,06,02,36,22.80
2016,06,06,02,37,22.80
2016,06,06,02,38,22.80
2016,06,06,02,39,22.90
2016,06,06,02,40,22.90
2016,06,06,02,41,22.90
2016,06,06,02,42,23.00
2016,06,06,02,43,23.00
2016,06,06,02,44,23.00
2016,06,06,02,45,23.00
2016,06,06,02,46,23.00
2016,06,06,02,47,23.00
2016,06,06,02,48,22.90
2016,06,06,02,49,22.90
2016,06,06,02,50,22.80
2016,06,06,02,51,22.70
2016,06,06,02,52,22.50
2016,06,06,02,53,22.30
2016,06,06,02,54,22.20
2016,06,06,02,55,22.00
2016,06,06,02,56,21.90
2016,06,06,02,57,21.80
2016,06,06,02,58,21.80
2016,06,06,02,59,21.70
2016,06,06,03,00,21.70
2016,06,06,03,01,21.70
2016,06,06,03,02,21.70
2016,06,06,03,03,21.70
2016,06,06,03,04,21.70
2016,06,06,03,05,21.70
2016,06,06,03,06,21.60
2016,06,06,03,07,21.60
2016,06,06,03,08,21.50
2016,06,06,03,09,21.40
2016,06,06,03,10,21.40
2016,06,06,03,11,21.30
2016,06,06,03,12,21.30
2016,06,06,03,13,21.30
2016,06,06,03,14,21.30
2016,06,06,03,15,21.30
2016,06,06,03,16,21.30
2016,06,06,03,17,21.30
2016,06,06,03,18,21.30
2016,06,06,03,19,21.30
2016,06,06,03,20,21.30
2016,06,06,03,21,21.20
2016,06,06,03,22,21.20
2016,06,06,03,23,21.20
2016,06,06,03,24,21.20
2016,06,06,03,25,21.20
2016,06,06,03,26,21.20
2016,06,06,03,27,21.10
2016,06,06,03,28,21.10
2016,06,06,03,29,21.10
2016,06,06,03,30,21.00
2016,06,06,03,31,21.00
2016,06,06,03,32,21.00
2016,06,06,03,33,20.90
2016,06,06,03,34,20.90
2016,06,06,03,35,20.90
2016,06,06,03,36,20.90
2016,06,06,03,37,20.80
2016,06,06,03,38,20.80
2016,06,06,03,39,20.80
2016,06,06,03,40,20.70
2016,06,06,03,41,20.70
2016,06,06,03,42,20.70
2016,06,06,03,43,20.60
2016,06,06,03,44,20.60
2016,06,06,03,45,20.50
2016,06,06,03,46,20.50
2016,06,06,03,47,20.40
2016,06,06,03,48,20.40
2016,06,06,03,49,20.40
2016,06,06,03,50,20.40
2016,06,06,03,51,20.40
2016,06,06,03,52,20.40
2016,06,06,03,53,20.40
2016,06,06,03,54,20.40
2016,06,06,03,55,20.40
2016,06,06,03,56,20.40
2016,06,06,03,57,20.40
2016,06,06,03,58,20.30
2016,06,06,03,59,20.30
2016,06,06,04,00,20.30
2016,06,06,04,01,20.30
2016,06,06,04,02,20.30
2016,06,06,04,03,20.30
2016,06,06,04,04,20.20
2016,06,06,04,05,20.20
2016,06,06,04,06,20.20
2016,06,06,04,07,20.20
2016,06,06,04,08,20.20
2016,06,06,04,09,20.20
2016,06,06,04,10,20.20
2016,06,06,04,11,20.20
2016,06,06,04,12,20.20
2016,06,06,04,13,20.30
2016,06,06,04,14,20.30
2016,06,06,04,15,20.30
2016,06,06,04,16,20.30
2016,06,06,04,17,20.30
2016,06,06,04,18,20.30
2016,06,06,04,19,20.30
2016,06,06,04,20,20.20
2016,06,06,04,21,20.20
2016,06,06,04,22,20.20
2016,06,06,04,23,20.10
2016,06,06,04,24,20.10
2016,06,06,04,25,20.10
2016,06,06,04,26,20.10
2016,06,06,04,27,20.10
2016,06,06,04,28,20.10
2016,06,06,04,29,20.00
2016,06,06,04,30,20.00
2016,06,06,04,31,19.90
2016,06,06,04,32,19.90
2016,06,06,04,33,19.90
2016,06,06,04,34,19.90
2016,06,06,04,35,19.90
2016,06,06,04,36,19.90
2016,06,06,04,37,19.90
2016,06,06,04,38,19.90
2016,06,06,04,39,19.90
2016,06,06,04,40,19.90
2016,06,06,04,41,20.00
2016,06,06,04,42,20.00
2016,06,06,04,43,20.00
2016,06,06,04,44,19.90
2016,06,06,04,45,19.90
2016,06,06,04,46,19.90
2016,06,06,04,47,19.80
2016,06,06,04,48,19.80
2016,06,06,04,49,19.70
2016,06,06,04,50,19.70
2016,06,06,04,51,19.60
2016,06,06,04,52,19.60
2016,06,06,04,53,19.50
2016,06,06,04,54,19.50
2016,06,06,04,55,19.50
2016,06,06,04,56,19.40
2016,06,06,04,57,19.40
2016,06,06,04,58,19.40
2016,06,06,04,59,19.40
2016,06,06,05,00,19.30
2016,06,06,05,01,19.30
2016,06,06,05,02,19.30
2016,06,06,05,03,19.30
2016,06,06,05,04,19.30
2016,06,06,05,05,19.20
2016,06,06,05,06,19.20
2016,06,06,05,07,19.20
2016,06,06,05,08,19.10
2016,06,06,05,09,19.10
2016,06,06,05,10,19.10
2016,06,06,05,11,19.10
2016,06,06,05,12,19.10
2016,06,06,05,13,19.10
2016,06,06,05,14,19.00
2016,06,06,05,15,19.00
2016,06,06,05,16,19.00
2016,06,06,05,17,19.00
2016,06,06,05,18,19.00
2016,06,06,05,19,19.00
2016,06,06,05,20,19.10
2016,06,06,05,21,19.10
2016,06,06,05,22,19.10
2016,06,06,05,23,19.10
2016,06,06,05,24,19.10
2016,06,06,05,25,19.10
2016,06,06,05,26,19.10
2016,06,06,05,27,19.10
2016,06,06,05,28,19.20
2016,06,06,05,29,19.20
2016,06,06,05,30,19.20
2016,06,06,05,31,19.20
2016,06,06,05,32,19.20
2016,06,06,05,33,19.10
2016,06,06,05,34,19.10
2016,06,06,05,35,19.10
2016,06,06,05,36,19.10
2016,06,06,05,37,19.00
2016,06,06,05,38,19.00
2016,06,06,05,39,18.90
2016,06,06,05,40,18.90
2016,06,06,05,41,18.90
2016,06,06,05,42,18.90
2016,06,06,05,43,18.90
2016,06,06,05,44,18.90
2016,06,06,05,45,18.90
2016,06,06,05,46,18.90
2016,06,06,05,47,18.90
2016,06,06,05,48,18.90
2016,06,06,05,49,18.90
2016,06,06,05,50,18.90
2016,06,06,05,51,18.90
2016,06,06,05,52,18.90
2016,06,06,05,53,18.90
2016,06,06,05,54,19.00
2016,06,06,05,55,19.00
2016,06,06,05,56,19.10
2016,06,06,05,57,19.10
2016,06,06,05,58,19.20
2016,06,06,05,59,19.20
2016,06,06,06,00,19.20
2016,06,06,06,01,19.20
2016,06,06,06,02,19.10
2016,06,06,06,03,19.10
2016,06,06,06,04,19.10
2016,06,06,06,05,19.00
2016,06,06,06,06,19.00
2016,06,06,06,07,19.00
2016,06,06,06,08,19.00
2016,06,06,06,09,19.00
2016,06,06,06,10,19.10
2016,06,06,06,11,19.10
2016,06,06,06,12,19.20
2016,06,06,06,13,19.20
2016,06,06,06,14,19.30
2016,06,06,06,15,19.30
2016,06,06,06,16,19.30
2016,06,06,06,17,19.30
2016,06,06,06,18,19.40
2016,06,06,06,19,19.40
2016,06,06,06,20,19.40
2016,06,06,06,21,19.40
2016,06,06,06,22,19.50
2016,06,06,06,23,19.50
2016,06,06,06,24,19.50
2016,06,06,06,25,19.50
2016,06,06,06,26,19.50
2016,06,06,06,27,19.60
2016,06,06,06,28,19.60
2016,06,06,06,29,19.60
2016,06,06,06,30,19.60
2016,06,06,06,31,19.60
2016,06,06,06,32,19.70
2016,06,06,06,33,19.70
2016,06,06,06,34,19.80
2016,06,06,06,35,19.80
2016,06,06,06,36,19.80
2016,06,06,06,37,19.90
2016,06,06,06,38,19.90
2016,06,06,06,39,19.90
2016,06,06,06,40,19.90
2016,06,06,06,41,19.90
2016,06,06,06,42,19.90
2016,06,06,06,43,20.00
2016,06,06,06,44,20.00
2016,06,06,06,45,20.00
2016,06,06,06,46,20.00
2016,06,06,06,47,20.00
2016,06,06,06,48,20.00
2016,06,06,06,49,20.00
2016,06,06,06,50,20.00
2016,06,06,06,51,19.90
2016,06,06,06,52,19.90
2016,06,06,06,53,19.90
2016,06,06,06,54,19.90
2016,06,06,06,55,19.90
2016,06,06,06,56,19.90
2016,06,06,06,57,19.90
2016,06,06,06,58,19.90
2016,06,06,06,59,19.90
2016,06,06,07,00,19.90
2016,06,06,07,01,19.80
2016,06,06,07,02,19.80
2016,06,06,07,03,19.80
2016,06,06,07,04,19.80
2016,06,06,07,05,19.80
2016,06,06,07,06,19.80
2016,06,06,07,07,19.80
2016,06,06,07,08,19.80
2016,06,06,07,09,19.80
2016,06,06,07,10,19.90
2016,06,06,07,11,19.90
2016,06,06,07,12,20.00
2016,06,06,07,13,20.00
2016,06,06,07,14,20.00
2016,06,06,07,15,20.10
2016,06,06,07,16,20.10
2016,06,06,07,17,20.10
2016,06,06,07,18,20.10
2016,06,06,07,19,20.10
2016,06,06,07,20,20.10
2016,06,06,07,21,20.20
2016,06,06,07,22,20.20
2016,06,06,07,23,20.20
2016,06,06,07,24,20.20
2016,06,06,07,25,20.20
2016,06,06,07,26,20.20
2016,06,06,07,27,20.20
2016,06,06,07,28,20.20
2016,06,06,07,29,20.20
2016,06,06,07,30,20.20
2016,06,06,07,31,20.20
2016,06,06,07,32,20.20
2016,06,06,07,33,20.20
2016,06,06,07,34,20.20
2016,06,06,07,35,20.30
2016,06,06,07,36,20.30
2016,06,06,07,37,20.30
2016,06,06,07,38,20.30
2016,06,06,07,39,20.30
2016,06,06,07,40,20.40
2016,06,06,07,41,20.40
2016,06,06,07,42,20.40
2016,06,06,07,43,20.50
2016,06,06,07,44,20.50
2016,06,06,07,45,20.60
2016,06,06,07,46,20.60
2016,06,06,07,47,20.60
2016,06,06,07,48,20.70
2016,06,06,07,49,20.70
2016,06,06,07,50,20.70
2016,06,06,07,51,20.70
2016,06,06,07,52,20.80
2016,06,06,07,53,20.80
2016,06,06,07,54,20.70
2016,06,06,07,55,20.70
2016,06,06,07,56,20.60
2016,06,06,07,57,20.60
2016,06,06,07,58,20.60
2016,06,06,07,59,20.50
2016,06,06,08,00,20.50
2016,06,06,08,01,20.40
2016,06,06,08,02,20.40
2016,06,06,08,03,20.40
2016,06,06,08,04,20.40
2016,06,06,08,05,20.40
2016,06,06,08,06,20.50
2016,06,06,08,07,20.50
2016,06,06,08,08,20.60
2016,06,06,08,09,20.60
2016,06,06,08,10,20.60
2016,06,06,08,11,20.60
2016,06,06,08,12,20.70
2016,06,06,08,13,20.70
2016,06,06,08,14,20.80
2016,06,06,08,15,20.80
2016,06,06,08,16,20.80
2016,06,06,08,17,20.80
2016,06,06,08,18,20.80
2016,06,06,08,19,20.90
2016,06,06,08,20,20.90
2016,06,06,08,21,21.00
2016,06,06,08,22,21.00
2016,06,06,08,23,21.00
2016,06,06,08,24,21.00
2016,06,06,08,25,21.00
2016,06,06,08,26,21.00
2016,06,06,08,27,20.90
2016,06,06,08,28,20.90
2016,06,06,08,29,20.90
2016,06,06,08,30,20.80
2016,06,06,08,31,20.80
2016,06,06,08,32,20.80
2016,06,06,08,33,20.90
2016,06,06,08,34,20.90
2016,06,06,08,35,20.90
2016,06,06,08,36,20.90
2016,06,06,08,37,20.90
2016,06,06,08,38,21.00
2016,06,06,08,39,21.00
2016,06,06,08,40,21.10
2016,06,06,08,41,21.20
2016,06,06,08,42,21.30
2016,06,06,08,43,21.40
2016,06,06,08,44,21.50
2016,06,06,08,45,21.50
2016,06,06,08,46,21.40
2016,06,06,08,47,21.40
2016,06,06,08,48,21.40
2016,06,06,08,49,21.40
2016,06,06,08,50,21.40
2016,06,06,08,51,21.40
2016,06,06,08,52,21.50
2016,06,06,08,53,21.50
2016,06,06,08,54,21.50
2016,06,06,08,55,21.50
2016,06,06,08,56,21.50
2016,06,06,08,57,21.60
2016,06,06,08,58,21.60
2016,06,06,08,59,21.60
2016,06,06,09,00,21.60
2016,06,06,09,01,21.60
2016,06,06,09,02,21.60
2016,06,06,09,03,21.60
2016,06,06,09,04,21.60
2016,06,06,09,05,21.60
2016,06,06,09,06,21.60
2016,06,06,09,07,21.60
2016,06,06,09,08,21.50
2016,06,06,09,09,21.50
2016,06,06,09,10,21.40
2016,06,06,09,11,21.40
2016,06,06,09,12,21.40
2016,06,06,09,13,21.40
2016,06,06,09,14,21.40
2016,06,06,09,15,21.40
2016,06,06,09,16,21.50
2016,06,06,09,17,21.60
2016,06,06,09,18,21.60
2016,06,06,09,19,21.70
2016,06,06,09,20,21.70
2016,06,06,09,21,21.70
2016,06,06,09,22,21.80
2016,06,06,09,23,21.80
2016,06,06,09,24,21.90
2016,06,06,09,25,22.00
2016,06,06,09,26,22.10
2016,06,06,09,27,22.10
2016,06,06,09,28,22.10
2016,06,06,09,29,22.00
2016,06,06,09,30,22.10
2016,06,06,09,31,22.10
2016,06,06,09,32,22.00
2016,06,06,09,33,21.80
2016,06,06,09,34,21.70
2016,06,06,09,35,21.60
2016,06,06,09,36,21.60
2016,06,06,09,37,21.60
2016,06,06,09,38,21.50
2016,06,06,09,39,21.50
2016,06,06,09,40,21.40
2016,06,06,09,41,21.40
2016,06,06,09,42,21.40
2016,06,06,09,43,21.40
2016,06,06,09,44,21.30
2016,06,06,09,45,21.30
2016,06,06,09,46,21.30
2016,06,06,09,47,21.30
2016,06,06,09,48,21.30
2016,06,06,09,49,21.40
2016,06,06,09,50,21.40
2016,06,06,09,51,21.50
2016,06,06,09,52,21.60
2016,06,06,09,53,21.70
2016,06,06,09,54,21.70
2016,06,06,09,55,21.70
2016,06,06,09,56,21.70
2016,06,06,09,57,21.70
2016,06,06,09,58,21.70
2016,06,06,09,59,21.70
2016,06,06,10,00,21.60
2016,06,06,10,01,21.70
2016,06,06,10,02,21.70
2016,06,06,10,03,21.70
2016,06,06,10,04,21.80
2016,06,06,10,05,21.80
2016,06,06,10,06,21.80
2016,06,06,10,07,21.80
2016,06,06,10,08,21.70
2016,06,06,10,09,21.70
2016,06,06,10,10,21.70
2016,06,06,10,11,21.60
2016,06,06,10,12,21.60
2016,06,06,10,13,21.50
2016,06,06,10,14,21.50
2016,06,06,10,15,21.40
2016,06,06,10,16,21.30
2016,06,06,10,17,21.30
2016,06,06,10,18,21.20
2016,06,06,10,19,21.10
2016,06,06,10,20,21.10
2016,06,06,10,21,21.10
2016,06,06,10,22,21.20
2016,06,06,10,23,21.20
2016,06,06,10,24,21.30
2016,06,06,10,25,21.30
2016,06,06,10,26,21.40
2016,06,06,10,27,21.40
2016,06,06,10,28,21.50
2016,06,06,10,29,21.60
2016,06,06,10,30,21.60
2016,06,06,10,31,21.60
2016,06,06,10,32,21.60
2016,06,06,10,33,21.60
2016,06,06,10,34,21.70
2016,06,06,10,35,21.70
2016,06,06,10,36,21.70
2016,06,06,10,37,21.60
2016,06,06,10,38,21.40
2016,06,06,10,39,21.30
2016,06,06,10,40,21.30
2016,06,06,10,41,21.30
2016,06,06,10,42,21.30
2016,06,06,10,43,21.40
2016,06,06,10,44,21.40
2016,06,06,10,45,21.40
2016,06,06,10,46,21.40
2016,06,06,10,47,21.50
2016,06,06,10,48,21.50
2016,06,06,10,49,21.60
2016,06,06,10,50,21.60
2016,06,06,10,51,21.70
2016,06,06,10,52,21.60
2016,06,06,10,53,21.60
2016,06,06,10,54,21.60
2016,06,06,10,55,21.60
2016,06,06,10,56,21.50
2016,06,06,10,57,21.50
2016,06,06,10,58,21.50
2016,06,06,10,59,21.50
2016,06,06,11,00,21.60
2016,06,06,11,01,21.70
2016,06,06,11,02,21.70
2016,06,06,11,03,21.70
2016,06,06,11,04,21.70
2016,06,06,11,05,21.60
2016,06,06,11,06,21.60
2016,06,06,11,07,21.50
2016,06,06,11,08,21.30
2016,06,06,11,09,21.30
2016,06,06,11,10,21.20
2016,06,06,11,11,21.10
2016,06,06,11,12,21.00
2016,06,06,11,13,21.00
2016,06,06,11,14,21.00
2016,06,06,11,15,21.10
2016,06,06,11,16,21.10
2016,06,06,11,17,21.20
2016,06,06,11,18,21.20
2016,06,06,11,19,21.20
2016,06,06,11,20,21.20
2016,06,06,11,21,21.30
2016,06,06,11,22,21.40
2016,06,06,11,23,21.40
2016,06,06,11,24,21.50
2016,06,06,11,25,21.60
2016,06,06,11,26,21.60
2016,06,06,11,27,21.60
2016,06,06,11,28,21.60
2016,06,06,11,29,21.60
2016,06,06,11,30,21.50
2016,06,06,11,31,21.50
2016,06,06,11,32,21.40
2016,06,06,11,33,21.30
2016,06,06,11,34,21.30
2016,06,06,11,35,21.20
2016,06,06,11,36,21.20
2016,06,06,11,37,21.20
2016,06,06,11,38,21.20
2016,06,06,11,39,21.20
2016,06,06,11,40,21.30
2016,06,06,11,41,21.30
2016,06,06,11,42,21.30
2016,06,06,11,43,21.30
2016,06,06,11,44,21.30
2016,06,06,11,45,21.30
2016,06,06,11,46,21.30
2016,06,06,11,47,21.30
2016,06,06,11,48,21.30
2016,06,06,11,49,21.40
2016,06,06,11,50,21.50
2016,06,06,11,51,21.60
2016,06,06,11,52,21.60
2016,06,06,11,53,21.70
2016,06,06,11,54,21.60
2016,06,06,11,55,21.70
2016,06,06,11,56,21.70
2016,06,06,11,57,21.80
2016,06,06,11,58,21.70
2016,06,06,11,59,21.70
2016,06,06,12,00,21.70
2016,06,06,12,01,21.70
2016,06,06,12,02,21.70
2016,06,06,12,03,21.70
2016,06,06,12,04,21.70
2016,06,06,12,05,21.80
2016,06,06,12,06,21.80
2016,06,06,12,07,21.80
2016,06,06,12,08,22.00
2016,06,06,12,09,22.10
2016,06,06,12,10,22.10
2016,06,06,12,11,22.20
2016,06,06,12,12,22.10
2016,06,06,12,13,22.10
2016,06,06,12,14,22.10
2016,06,06,12,15,22.10
2016,06,06,12,16,22.10
2016,06,06,12,17,22.10
2016,06,06,12,18,22.10
2016,06,06,12,19,22.10
2016,06,06,12,20,22.00
2016,06,06,12,21,21.90
2016,06,06,12,22,21.90
2016,06,06,12,23,21.80
2016,06,06,12,24,21.60
2016,06,06,12,25,21.60
2016,06,06,12,26,21.60
2016,06,06,12,27,21.60
2016,06,06,12,28,21.50
2016,06,06,12,29,21.40
2016,06,06,12,30,21.40
2016,06,06,12,31,21.30
2016,06,06,12,32,21.40
2016,06,06,12,33,21.40
2016,06,06,12,34,21.40
2016,06,06,12,35,21.40
2016,06,06,12,36,21.40
2016,06,06,12,37,21.40
2016,06,06,12,38,21.30
2016,06,06,12,39,21.20
2016,06,06,12,40,21.20
2016,06,06,12,41,21.20
2016,06,06,12,42,21.20
2016,06,06,12,43,21.30
2016,06,06,12,44,21.30
2016,06,06,12,45,21.30
2016,06,06,12,46,21.40
2016,06,06,12,47,21.50
2016,06,06,12,48,21.50
2016,06,06,12,49,21.60
2016,06,06,12,50,21.60
2016,06,06,12,51,21.60
2016,06,06,12,52,21.60
2016,06,06,12,53,21.70
2016,06,06,12,54,21.70
2016,06,06,12,55,21.80
2016,06,06,12,56,21.80
2016,06,06,12,57,21.90
2016,06,06,12,58,22.00
2016,06,06,12,59,22.10
2016,06,06,13,00,22.20
2016,06,06,13,01,22.30
2016,06,06,13,02,22.30
2016,06,06,13,03,22.30
2016,06,06,13,04,22.20
2016,06,06,13,05,22.10
2016,06,06,13,06,22.10
2016,06,06,13,07,21.90
2016,06,06,13,08,21.90
2016,06,06,13,09,21.80
2016,06,06,13,10,21.80
2016,06,06,13,11,21.80
2016,06,06,13,12,21.80
2016,06,06,13,13,21.80
2016,06,06,13,14,21.90
2016,06,06,13,15,22.00
2016,06,06,13,16,22.10
2016,06,06,13,17,22.20
2016,06,06,13,18,22.30
2016,06,06,13,19,22.40
2016,06,06,13,20,22.50
2016,06,06,13,21,22.60
2016,06,06,13,22,22.80
2016,06,06,13,23,22.80
2016,06,06,13,24,22.80
2016,06,06,13,25,22.90
2016,06,06,13,26,22.80
2016,06,06,13,27,22.90
2016,06,06,13,28,22.90
2016,06,06,13,29,22.90
2016,06,06,13,30,23.00
2016,06,06,13,31,23.10
2016,06,06,13,32,23.30
2016,06,06,13,33,23.30
2016,06,06,13,34,23.40
2016,06,06,13,35,23.50
2016,06,06,13,36,23.60
2016,06,06,13,37,23.60
2016,06,06,13,38,23.60
2016,06,06,13,39,23.70
2016,06,06,13,40,23.80
2016,06,06,13,41,23.90
2016,06,06,13,42,24.00
2016,06,06,13,43,24.00
2016,06,06,13,44,24.00
2016,06,06,13,45,24.10
2016,06,06,13,46,24.20
2016,06,06,13,47,24.30
2016,06,06,13,48,24.30
2016,06,06,13,49,24.40
2016,06,06,13,50,24.30
2016,06,06,13,51,24.30
2016,06,06,13,52,24.20
2016,06,06,13,53,24.10
2016,06,06,13,54,24.10
2016,06,06,13,55,24.10
2016,06,06,13,56,24.10
2016,06,06,13,57,24.20
2016,06,06,13,58,24.30
2016,06,06,13,59,24.30
2016,06,06,14,00,24.40
2016,06,06,14,01,24.30
2016,06,06,14,02,24.30
2016,06,06,14,03,24.20
2016,06,06,14,04,24.10
2016,06,06,14,05,24.10
2016,06,06,14,06,24.00
2016,06,06,14,07,23.80
2016,06,06,14,08,23.70
2016,06,06,14,09,23.50
2016,06,06,14,10,23.40
2016,06,06,14,11,23.20
2016,06,06,14,12,22.90
2016,06,06,14,13,22.80
2016,06,06,14,14,22.70
2016,06,06,14,15,22.60
2016,06,06,14,16,22.60
2016,06,06,14,17,22.60
2016,06,06,14,18,22.60
2016,06,06,14,19,22.60
2016,06,06,14,20,22.60
2016,06,06,14,21,22.70
2016,06,06,14,22,22.70
2016,06,06,14,23,22.80
2016,06,06,14,24,22.80
2016,06,06,14,25,22.80
2016,06,06,14,26,22.90
2016,06,06,14,27,23.00
2016,06,06,14,28,23.10
2016,06,06,14,29,23.10
2016,06,06,14,30,23.20
2016,06,06,14,31,23.30
2016,06,06,14,32,23.40
2016,06,06,14,33,23.50
2016,06,06,14,34,23.60
2016,06,06,14,35,23.70
2016,06,06,14,36,23.80
2016,06,06,14,37,23.90
2016,06,06,14,38,24.00
2016,06,06,14,39,24.10
2016,06,06,14,40,24.20
2016,06,06,14,41,24.20
2016,06,06,14,42,24.30
2016,06,06,14,43,24.30
2016,06,06,14,44,24.40
2016,06,06,14,45,24.50
2016,06,06,14,46,24.60
2016,06,06,14,47,24.70
2016,06,06,14,48,24.70
2016,06,06,14,49,24.70
2016,06,06,14,50,24.60
2016,06,06,14,51,24.60
2016,06,06,14,52,24.60
2016,06,06,14,53,24.60
2016,06,06,14,54,24.60
2016,06,06,14,55,24.60
2016,06,06,14,56,24.60
2016,06,06,14,57,24.60
2016,06,06,14,58,24.60
2016,06,06,14,59,24.60
2016,06,06,15,00,24.60
2016,06,06,15,01,24.60
2016,06,06,15,02,24.60
2016,06,06,15,03,24.60
2016,06,06,15,04,24.50
2016,06,06,15,05,24.40
2016,06,06,15,06,24.30
2016,06,06,15,07,24.20
2016,06,06,15,08,24.20
2016,06,06,15,09,24.00
2016,06,06,15,10,23.90
2016,06,06,15,11,23.80
2016,06,06,15,12,23.80
2016,06,06,15,13,23.70
2016,06,06,15,14,23.70
2016,06,06,15,15,23.70
2016,06,06,15,16,23.70
2016,06,06,15,17,23.70
2016,06,06,15,18,23.80
2016,06,06,15,19,23.80
2016,06,06,15,20,23.80
2016,06,06,15,21,23.80
2016,06,06,15,22,23.80
2016,06,06,15,23,23.80
2016,06,06,15,24,23.80
2016,06,06,15,25,23.80
2016,06,06,15,26,23.70
2016,06,06,15,27,23.60
2016,06,06,15,28,23.50
2016,06,06,15,29,23.40
2016,06,06,15,30,23.40
2016,06,06,15,31,23.40
2016,06,06,15,32,23.40
2016,06,06,15,33,23.40
2016,06,06,15,34,23.40
2016,06,06,15,35,23.40
2016,06,06,15,36,23.40
2016,06,06,15,37,23.40
2016,06,06,15,38,23.40
2016,06,06,15,39,23.50
2016,06,06,15,40,23.50
2016,06,06,15,41,23.50
2016,06,06,15,42,23.50
2016,06,06,15,43,23.50
2016,06,06,15,44,23.60
2016,06,06,15,45,23.70
2016,06,06,15,46,23.70
2016,06,06,15,47,23.80
2016,06,06,15,48,24.00
2016,06,06,15,49,24.20
2016,06,06,15,50,24.30
2016,06,06,15,51,24.50
2016,06,06,15,52,24.60
2016,06,06,15,53,24.70
2016,06,06,15,54,24.80
2016,06,06,15,55,24.80
2016,06,06,15,56,24.80
2016,06,06,15,57,24.90
2016,06,06,15,58,24.90
2016,06,06,15,59,24.90
2016,06,06,16,00,24.90
2016,06,06,16,01,24.80
2016,06,06,16,02,24.80
2016,06,06,16,03,24.70
2016,06,06,16,04,24.60
2016,06,06,16,05,24.60
2016,06,06,16,06,24.50
2016,06,06,16,07,24.40
2016,06,06,16,08,24.30
2016,06,06,16,09,24.30
2016,06,06,16,10,24.30
2016,06,06,16,11,24.20
2016,06,06,16,12,24.20
2016,06,06,16,13,24.20
2016,06,06,16,14,24.20
2016,06,06,16,15,24.20
2016,06,06,16,16,24.20
2016,06,06,16,17,24.20
2016,06,06,16,18,24.30
2016,06,06,16,19,24.40
2016,06,06,16,20,24.40
2016,06,06,16,21,24.40
2016,06,06,16,22,24.40
2016,06,06,16,23,24.50
2016,06,06,16,24,24.50
2016,06,06,16,25,24.60
2016,06,06,16,26,24.60
2016,06,06,16,27,24.70
2016,06,06,16,28,24.80
2016,06,06,16,29,24.90
2016,06,06,16,30,25.00
2016,06,06,16,31,25.20
2016,06,06,16,32,25.30
2016,06,06,16,33,25.40
2016,06,06,16,34,25.50
2016,06,06,16,35,25.70
2016,06,06,16,36,25.70
2016,06,06,16,37,25.80
2016,06,06,16,38,25.80
2016,06,06,16,39,25.80
2016,06,06,16,40,25.80
2016,06,06,16,41,25.80
2016,06,06,16,42,25.70
2016,06,06,16,43,25.70
2016,06,06,16,44,25.70
2016,06,06,16,45,25.60
2016,06,06,16,46,25.60
2016,06,06,16,47,25.60
2016,06,06,16,48,25.60
2016,06,06,16,49,25.60
2016,06,06,16,50,25.60
2016,06,06,16,51,25.60
2016,06,06,16,52,25.50
2016,06,06,16,53,25.40
2016,06,06,16,54,25.20
2016,06,06,16,55,25.20
2016,06,06,16,56,25.00
2016,06,06,16,57,24.90
2016,06,06,16,58,24.80
2016,06,06,16,59,24.70
2016,06,06,17,00,24.80
2016,06,06,17,01,24.80
2016,06,06,17,02,24.80
2016,06,06,17,03,24.80
2016,06,06,17,04,24.90
2016,06,06,17,05,24.90
2016,06,06,17,06,24.90
2016,06,06,17,07,24.80
2016,06,06,17,08,24.80
2016,06,06,17,09,24.80
2016,06,06,17,10,24.80
2016,06,06,17,11,24.80
2016,06,06,17,12,24.80
2016,06,06,17,13,24.80
2016,06,06,17,14,24.70
2016,06,06,17,15,24.60
2016,06,06,17,16,24.60
2016,06,06,17,17,24.60
2016,06,06,17,18,24.60
2016,06,06,17,19,24.60